| time (UTC) | temp C | wind direction | speed KPH | gust KPH | rain 1hr cm | rain 24hr cm | rain mn cm | humidity % | barometer mb |
| 20260503192525 | 11 | 69 | 0.0 | 4.8 | 0.03 | 0.03 | 0.03 | 91 | 1008.3 |
| 20260503192024 | 11 | 198 | 0.0 | 0.0 | 0.03 | 0.03 | 0.03 | 91 | 1008.3 |
| 20260503191523 | 11 | 198 | 0.0 | 0.0 | 0.03 | 0.03 | 0.03 | 90 | 1008.4 |
| 20260503191023 | 12 | 198 | 0.0 | 0.0 | 0.03 | 0.03 | 0.03 | 89 | 1008.5 |
| 20260503190522 | 12 | 198 | 0.0 | 0.0 | 0.03 | 0.03 | 0.03 | 89 | 1008.6 |
| 20260503190021 | 12 | 198 | 0.0 | 0.0 | 0.00 | 0.00 | 0.00 | 89 | 1008.7 |
| 20260503185520 | 12 | 198 | 0.0 | 0.0 | 0.00 | 0.00 | 0.00 | 89 | 1008.7 |
| 20260503185021 | 12 | 198 | 0.0 | 0.0 | 0.00 | 0.00 | 0.00 | 88 | 1008.7 |
| 20260503184533 | 12 | 198 | 0.0 | 0.0 | 0.00 | 0.00 | 0.00 | 87 | 1008.8 |
| 20260503184020 | 12 | 198 | 0.0 | 0.0 | 0.00 | 0.00 | 0.00 | 87 | 1008.8 |
| 20260503183520 | 12 | 198 | 0.0 | 3.2 | 0.00 | 0.00 | 0.00 | 86 | 1008.9 |
| 20260503183021 | 12 | 198 | 0.0 | 4.8 | 0.00 | 0.00 | 0.00 | 86 | 1008.9 |
| 20260503182518 | 12 | 198 | 0.0 | 4.8 | 0.00 | 0.00 | 0.00 | 85 | 1009.0 |
| 20260503182018 | 13 | 198 | 1.6 | 4.8 | 0.00 | 0.00 | 0.00 | 85 | 1009.0 |
| 20260503181518 | 13 | 198 | 1.6 | 3.2 | 0.00 | 0.00 | 0.00 | 86 | 1009.0 |
| 20260503181019 | 13 | 198 | 0.0 | 3.2 | 0.00 | 0.00 | 0.00 | 87 | 1009.0 |
| 20260503180518 | 12 | 198 | 0.0 | 4.8 | 0.00 | 0.00 | 0.00 | 87 | 1009.0 |
| 20260503180024 | 12 | 198 | 1.6 | 4.8 | 0.00 | 0.00 | 0.00 | 87 | 1009.0 |
| 20260503175517 | 12 | 198 | 0.0 | 4.8 | 0.00 | 0.00 | 0.00 | 88 | 1009.0 |
| 20260503175017 | 12 | 198 | 1.6 | 4.8 | 0.00 | 0.00 | 0.00 | 88 | 1009.0 |
| 20260503174518 | 12 | 198 | 0.0 | 4.8 | 0.00 | 0.00 | 0.00 | 88 | 1008.9 |
| 20260503174017 | 12 | 198 | 1.6 | 4.8 | 0.00 | 0.00 | 0.00 | 89 | 1009.0 |
| 20260503173517 | 12 | 200 | 0.0 | 6.4 | 0.00 | 0.00 | 0.00 | 88 | 1009.0 |
| 20260503173017 | 12 | 192 | 1.6 | 6.4 | 0.00 | 0.00 | 0.00 | 88 | 1009.0 |
| 20260503172515 | 12 | 181 | 1.6 | 8.0 | 0.00 | 0.00 | 0.00 | 88 | 1009.0 |
| 20260503172015 | 12 | 208 | 3.2 | 8.0 | 0.00 | 0.00 | 0.00 | 87 | 1009.1 |
| 20260503171514 | 12 | 187 | 1.6 | 6.4 | 0.00 | 0.00 | 0.00 | 87 | 1009.1 |
| 20260503171017 | 12 | 180 | 1.6 | 8.0 | 0.00 | 0.00 | 0.00 | 87 | 1009.1 |
| 20260503170514 | 12 | 159 | 1.6 | 9.7 | 0.00 | 0.00 | 0.00 | 87 | 1009.1 |
| 20260503151006 | 15 | 155 | 9.7 | 17.7 | 0.00 | 0.00 | 0.00 | 76 | 1009.6 |
| 20260503150503 | 15 | 155 | 6.4 | 16.1 | 0.00 | 0.00 | 0.00 | 77 | 1009.6 |
| 20260503131051 | 13 | 139 | 1.6 | 11.3 | 0.00 | 0.00 | 0.00 | 82 | 1010.6 |
| 20260503130549 | 13 | 194 | 4.8 | 11.3 | 0.00 | 0.00 | 0.00 | 83 | 1010.6 |
| 20260503110543 | 15 | 184 | 4.8 | 12.9 | 0.00 | 0.00 | 0.00 | 74 | 1011.1 |
| 20260503081529 | 12 | 242 | 1.6 | 12.9 | 0.00 | 0.00 | 0.00 | 83 | 1011.4 |
| 20260503081029 | 12 | 213 | 3.2 | 8.0 | 0.00 | 0.00 | 0.00 | 83 | 1011.4 |
| 20260503080529 | 12 | 191 | 1.6 | 9.7 | 0.00 | 0.00 | 0.00 | 85 | 1011.4 |
| 20260503072526 | 12 | 255 | 4.8 | 11.3 | 0.00 | 0.00 | 0.00 | 86 | 1011.3 |
| 20260503072026 | 12 | 219 | 4.8 | 16.1 | 0.00 | 0.00 | 0.00 | 87 | 1011.4 |
| 20260503071525 | 12 | 331 | 3.2 | 16.1 | 0.00 | 0.00 | 0.00 | 87 | 1011.4 |
| 20260503071024 | 12 | 322 | 3.2 | 11.3 | 0.00 | 0.00 | 0.00 | 88 | 1011.2 |
| 20260503070525 | 11 | 215 | 1.6 | 14.5 | 0.00 | 0.00 | 0.00 | 88 | 1011.2 |
| 20260503055021 | 11 | 306 | 1.6 | 11.3 | 0.00 | 0.00 | 0.00 | 91 | 1010.9 |
| 20260503054526 | 11 | 209 | 4.8 | 11.3 | 0.00 | 0.00 | 0.00 | 92 | 1010.9 |
| 20260503054023 | 11 | 271 | 1.6 | 11.3 | 0.00 | 0.00 | 0.00 | 92 | 1010.9 |
| 20260503053520 | 11 | 293 | 3.2 | 9.7 | 0.00 | 0.00 | 0.00 | 93 | 1010.7 |
| 20260503053022 | 11 | 234 | 1.6 | 8.0 | 0.00 | 0.00 | 0.00 | 93 | 1010.7 |
| 20260503052521 | 11 | 205 | 0.0 | 8.0 | 0.00 | 0.00 | 0.00 | 94 | 1010.7 |
| 20260503052016 | 11 | 163 | 0.0 | 8.0 | 0.00 | 0.00 | 0.00 | 94 | 1010.6 |
| 20260503051614 | 11 | 217 | 1.6 | 6.4 | 0.00 | 0.00 | 0.00 | 94 | 1010.8 |
| 20260503051014 | 11 | 223 | 1.6 | 6.4 | 0.00 | 0.00 | 0.00 | 94 | 1010.8 |
| 20260503050514 | 10 | 231 | 1.6 | 6.4 | 0.00 | 0.00 | 0.00 | 95 | 1010.9 |
| 20260503050013 | 10 | 310 | 1.6 | 6.4 | 0.00 | 0.00 | 0.00 | 95 | 1010.9 |
| 20260503045511 | 10 | 255 | 1.6 | 8.0 | 0.00 | 0.00 | 0.00 | 95 | 1011.0 |
| 20260503045011 | 10 | 292 | 1.6 | 8.0 | 0.00 | 0.00 | 0.00 | 95 | 1011.1 |
| 20260503044511 | 10 | 247 | 1.6 | 6.4 | 0.00 | 0.00 | 0.00 | 95 | 1011.0 |
| 20260503044010 | 10 | 239 | 1.6 | 6.4 | 0.00 | 0.00 | 0.00 | 95 | 1011.0 |
| 20260503043510 | 10 | 234 | 1.6 | 8.0 | 0.00 | 0.00 | 0.00 | 95 | 1011.1 |
| 20260503043010 | 9 | 243 | 0.0 | 4.8 | 0.00 | 0.00 | 0.00 | 94 | 1011.1 |
| 20260503042509 | 9 | 219 | 1.6 | 4.8 | 0.00 | 0.00 | 0.00 | 94 | 1011.2 |
| 20260503042009 | 9 | 219 | 0.0 | 4.8 | 0.00 | 0.00 | 0.00 | 94 | 1011.1 |
| 20260503041511 | 8 | 296 | 0.0 | 1.6 | 0.00 | 0.00 | 0.00 | 93 | 1011.1 |
| 20260503041010 | 8 | 296 | 0.0 | 3.2 | 0.00 | 0.00 | 0.00 | 93 | 1011.1 |
| 20260503040507 | 8 | 296 | 0.0 | 3.2 | 0.00 | 0.00 | 0.00 | 93 | 1011.0 |
| 20260503040005 | 8 | 296 | 0.0 | 1.6 | 0.00 | 0.00 | 0.00 | 93 | 1011.2 |
| 20260503035508 | 8 | 296 | 0.0 | 1.6 | 0.00 | 0.00 | 0.00 | 93 | 1011.1 |
| 20260503035003 | 8 | 296 | 0.0 | 1.6 | 0.00 | 0.00 | 0.00 | 92 | 1011.2 |
| 20260503034507 | 9 | 296 | 0.0 | 1.6 | 0.00 | 0.00 | 0.00 | 92 | 1011.2 |
| 20260503034002 | 9 | 296 | 0.0 | 1.6 | 0.00 | 0.00 | 0.00 | 92 | 1011.1 |
| 20260503033600 | 9 | 296 | 0.0 | 1.6 | 0.00 | 0.00 | 0.00 | 92 | 1011.0 |
| 20260503033102 | 9 | 296 | 0.0 | 1.6 | 0.00 | 0.00 | 0.00 | 93 | 1010.9 |
| 20260503032559 | 10 | 296 | 0.0 | 1.6 | 0.00 | 0.00 | 0.00 | 93 | 1010.8 |
| 20260503032058 | 10 | 296 | 0.0 | 1.6 | 0.00 | 0.00 | 0.00 | 92 | 1010.8 |
| 20260503031557 | 10 | 296 | 0.0 | 3.2 | 0.00 | 0.00 | 0.00 | 93 | 1010.9 |
| 20260503031058 | 10 | 296 | 0.0 | 6.4 | 0.00 | 0.00 | 0.00 | 93 | 1010.9 |
| 20260503030558 | 10 | 285 | 0.0 | 6.4 | 0.00 | 0.00 | 0.00 | 93 | 1011.0 |
| 20260503030058 | 10 | 294 | 0.0 | 6.4 | 0.00 | 0.00 | 0.00 | 93 | 1010.9 |
| 20260503025555 | 10 | 294 | 0.0 | 6.4 | 0.00 | 0.00 | 0.00 | 93 | 1011.0 |
| 20260503025055 | 10 | 221 | 1.6 | 6.4 | 0.00 | 0.00 | 0.00 | 93 | 1011.0 |
| 20260503024555 | 10 | 272 | 0.0 | 9.7 | 0.00 | 0.00 | 0.00 | 93 | 1011.1 |
| 20260503024056 | 10 | 230 | 1.6 | 9.7 | 0.00 | 0.00 | 0.00 | 93 | 1011.1 |
| 20260503023555 | 10 | 244 | 0.0 | 6.4 | 0.00 | 0.00 | 0.00 | 93 | 1011.2 |
| 20260503023054 | 10 | 229 | 0.0 | 6.4 | 0.00 | 0.00 | 0.00 | 92 | 1011.3 |
| 20260503022553 | 10 | 211 | 1.6 | 6.4 | 0.00 | 0.00 | 0.00 | 92 | 1011.2 |
| 20260503022052 | 10 | 222 | 1.6 | 11.3 | 0.00 | 0.00 | 0.00 | 93 | 1011.2 |
| 20260503021551 | 10 | 193 | 3.2 | 11.3 | 0.00 | 0.00 | 0.00 | 93 | 1011.3 |
| 20260503021051 | 10 | 219 | 1.6 | 8.0 | 0.00 | 0.00 | 0.00 | 93 | 1011.3 |
| 20260503020552 | 10 | 278 | 1.6 | 8.0 | 0.00 | 0.00 | 0.00 | 93 | 1011.2 |
| 20260503020050 | 10 | 304 | 1.6 | 14.5 | 0.00 | 0.00 | 0.00 | 93 | 1011.2 |
| 20260503015551 | 10 | 277 | 3.2 | 14.5 | 0.00 | 0.00 | 0.00 | 93 | 1011.2 |
| 20260503015049 | 10 | 281 | 1.6 | 6.4 | 0.00 | 0.00 | 0.00 | 93 | 1011.2 |
| 20260503014558 | 10 | 254 | 0.0 | 4.8 | 0.00 | 0.00 | 0.00 | 93 | 1011.2 |
| 20260503014049 | 10 | 296 | 1.6 | 4.8 | 0.00 | 0.00 | 0.00 | 93 | 1011.1 |
| 20260503013549 | 10 | 261 | 0.0 | 6.4 | 0.00 | 0.00 | 0.00 | 93 | 1011.1 |
| 20260503013049 | 10 | 271 | 1.6 | 6.4 | 0.00 | 0.00 | 0.00 | 93 | 1011.2 |
| 20260503012550 | 10 | 182 | 1.6 | 6.4 | 0.00 | 0.00 | 0.00 | 92 | 1011.1 |
| 20260503012047 | 10 | 296 | 0.0 | 4.8 | 0.00 | 0.00 | 0.00 | 92 | 1011.0 |
| 20260503011546 | 10 | 291 | 0.0 | 4.8 | 0.00 | 0.00 | 0.00 | 92 | 1011.0 |
| 20260503011047 | 11 | 291 | 1.6 | 8.0 | 0.00 | 0.00 | 0.00 | 92 | 1011.0 |
| 20260503010546 | 10 | 237 | 1.6 | 8.0 | 0.00 | 0.00 | 0.00 | 92 | 1011.1 |
| 20260503010047 | 10 | 190 | 0.0 | 4.8 | 0.00 | 0.00 | 0.00 | 92 | 1011.1 |
| 20260503005546 | 10 | 280 | 0.0 | 3.2 | 0.00 | 0.00 | 0.00 | 92 | 1011.0 |
| 20260503005048 | 10 | 225 | 0.0 | 3.2 | 0.00 | 0.00 | 0.00 | 91 | 1010.9 |
| 20260503004546 | 10 | 225 | 0.0 | 3.2 | 0.00 | 0.00 | 0.00 | 91 | 1010.9 |
| 20260503004045 | 11 | 225 | 0.0 | 3.2 | 0.00 | 0.00 | 0.00 | 91 | 1010.9 |
| 20260503003544 | 11 | 225 | 0.0 | 3.2 | 0.00 | 0.00 | 0.00 | 91 | 1011.0 |
| 20260503003043 | 11 | 176 | 0.0 | 3.2 | 0.00 | 0.00 | 0.00 | 91 | 1011.0 |
| 20260503002544 | 11 | 249 | 0.0 | 3.2 | 0.00 | 0.00 | 0.00 | 91 | 1011.1 |
| 20260503002043 | 11 | 249 | 0.0 | 3.2 | 0.00 | 0.00 | 0.00 | 90 | 1011.0 |
| 20260503001542 | 10 | 249 | 0.0 | 3.2 | 0.00 | 0.00 | 0.00 | 90 | 1011.0 |
| 20260503001042 | 10 | 249 | 0.0 | 1.6 | 0.00 | 0.00 | 0.00 | 89 | 1011.0 |
| 20260503000540 | 10 | 249 | 0.0 | 3.2 | 0.00 | 0.00 | 0.00 | 89 | 1011.1 |
| 20260503000040 | 10 | 249 | 0.0 | 3.2 | 0.00 | 0.00 | 0.00 | 88 | 1011.1 |
| 20260502235539 | 10 | 249 | 0.0 | 1.6 | 0.00 | 0.00 | 0.00 | 87 | 1011.1 |
| 20260502235038 | 11 | 249 | 0.0 | 1.6 | 0.00 | 0.00 | 0.00 | 87 | 1011.2 |
| 20260502234538 | 11 | 249 | 0.0 | 1.6 | 0.00 | 0.00 | 0.00 | 86 | 1011.2 |
| 20260502234038 | 11 | 249 | 0.0 | 1.6 | 0.00 | 0.00 | 0.00 | 85 | 1011.3 |
| 20260502233536 | 11 | 249 | 0.0 | 1.6 | 0.00 | 0.00 | 0.00 | 84 | 1011.2 |
| 20260502233037 | 11 | 249 | 0.0 | 0.0 | 0.00 | 0.00 | 0.00 | 83 | 1011.2 |
| 20260502232533 | 11 | 249 | 0.0 | 1.6 | 0.00 | 0.00 | 0.00 | 82 | 1011.2 |
| 20260502232032 | 11 | 249 | 0.0 | 1.6 | 0.00 | 0.00 | 0.00 | 82 | 1011.2 |
| 20260502231533 | 11 | 249 | 0.0 | 1.6 | 0.00 | 0.00 | 0.00 | 81 | 1011.4 |
| 20260502231032 | 12 | 249 | 0.0 | 0.0 | 0.00 | 0.00 | 0.00 | 80 | 1011.4 |
| 20260502230529 | 12 | 249 | 0.0 | 0.0 | 0.00 | 0.00 | 0.00 | 78 | 1011.4 |
| 20260502230027 | 12 | 249 | 0.0 | 0.0 | 0.00 | 0.00 | 0.00 | 77 | 1011.4 |
| 20260502225526 | 12 | 249 | 0.0 | 1.6 | 0.00 | 0.00 | 0.00 | 76 | 1011.4 |
| 20260502225024 | 12 | 249 | 0.0 | 1.6 | 0.00 | 0.00 | 0.00 | 76 | 1011.4 |
| 20260502224524 | 13 | 249 | 0.0 | 1.6 | 0.00 | 0.00 | 0.00 | 76 | 1011.5 |
| 20260502224023 | 13 | 249 | 0.0 | 1.6 | 0.00 | 0.00 | 0.00 | 75 | 1011.5 |
| 20260502223524 | 13 | 249 | 0.0 | 1.6 | 0.00 | 0.00 | 0.00 | 74 | 1011.6 |
| 20260502223021 | 13 | 249 | 0.0 | 1.6 | 0.00 | 0.00 | 0.00 | 72 | 1011.5 |
| 20260502222520 | 13 | 249 | 0.0 | 0.0 | 0.00 | 0.00 | 0.00 | 72 | 1011.5 |
| 20260502222018 | 14 | 249 | 0.0 | 1.6 | 0.00 | 0.00 | 0.00 | 71 | 1011.4 |
| 20260502221516 | 14 | 249 | 0.0 | 3.2 | 0.00 | 0.00 | 0.00 | 71 | 1011.5 |
| 20260502221015 | 14 | 249 | 0.0 | 3.2 | 0.00 | 0.00 | 0.00 | 70 | 1011.5 |
| 20260502220515 | 15 | 249 | 0.0 | 0.0 | 0.00 | 0.00 | 0.00 | 70 | 1011.4 |
| 20260502220013 | 15 | 249 | 0.0 | 1.6 | 0.00 | 0.00 | 0.00 | 69 | 1011.5 |
| 20260502215512 | 15 | 249 | 0.0 | 6.4 | 0.00 | 0.00 | 0.00 | 69 | 1011.4 |
| 20260502215012 | 15 | 249 | 0.0 | 6.4 | 0.00 | 0.00 | 0.00 | 68 | 1011.5 |
| 20260502214515 | 15 | 184 | 0.0 | 3.2 | 0.00 | 0.00 | 0.00 | 67 | 1011.6 |
| 20260502214012 | 15 | 184 | 0.0 | 4.8 | 0.00 | 0.00 | 0.00 | 66 | 1011.7 |
| 20260502213611 | 15 | 239 | 0.0 | 4.8 | 0.00 | 0.00 | 0.00 | 66 | 1011.7 |
| 20260502213012 | 15 | 291 | 0.0 | 1.6 | 0.00 | 0.00 | 0.00 | 65 | 1011.7 |
| 20260502212511 | 16 | 280 | 0.0 | 1.6 | 0.00 | 0.00 | 0.00 | 64 | 1011.7 |
| 20260502212017 | 16 | 280 | 0.0 | 1.6 | 0.00 | 0.00 | 0.00 | 64 | 1011.8 |
| 20260502211523 | 16 | 280 | 0.0 | 1.6 | 0.00 | 0.00 | 0.00 | 64 | 1011.8 |
| 20260502211009 | 16 | 280 | 0.0 | 1.6 | 0.00 | 0.00 | 0.00 | 63 | 1011.7 |
| 20260502210510 | 16 | 280 | 0.0 | 1.6 | 0.00 | 0.00 | 0.00 | 63 | 1011.7 |
| 20260502210009 | 16 | 280 | 0.0 | 3.2 | 0.00 | 0.00 | 0.00 | 63 | 1011.7 |
| 20260502205510 | 16 | 280 | 0.0 | 3.2 | 0.00 | 0.00 | 0.00 | 62 | 1011.7 |
| 20260502205010 | 16 | 280 | 0.0 | 3.2 | 0.00 | 0.00 | 0.00 | 61 | 1011.7 |
| 20260502204510 | 16 | 280 | 0.0 | 3.2 | 0.00 | 0.00 | 0.00 | 61 | 1011.7 |
| 20260502204012 | 16 | 280 | 0.0 | 3.2 | 0.00 | 0.00 | 0.00 | 61 | 1011.8 |
| 20260502203511 | 16 | 280 | 0.0 | 0.0 | 0.00 | 0.00 | 0.00 | 62 | 1011.7 |
| 20260502203009 | 16 | 280 | 0.0 | 1.6 | 0.00 | 0.00 | 0.00 | 62 | 1011.7 |
| 20260502202509 | 16 | 280 | 0.0 | 1.6 | 0.00 | 0.00 | 0.00 | 62 | 1011.7 |
| 20260502202009 | 16 | 280 | 0.0 | 0.0 | 0.00 | 0.00 | 0.00 | 62 | 1011.8 |
| 20260502201507 | 16 | 280 | 0.0 | 1.6 | 0.00 | 0.00 | 0.00 | 61 | 1011.8 |
| 20260502201009 | 16 | 280 | 0.0 | 3.2 | 0.00 | 0.00 | 0.00 | 60 | 1011.8 |
| 20260502200508 | 17 | 280 | 0.0 | 3.2 | 0.00 | 0.00 | 0.00 | 59 | 1011.8 |
| 20260502200008 | 17 | 280 | 0.0 | 6.4 | 0.00 | 0.00 | 0.00 | 59 | 1011.9 |
| 20260502195511 | 17 | 202 | 0.0 | 6.4 | 0.00 | 0.00 | 0.00 | 59 | 1012.0 |
| 20260502195007 | 17 | 212 | 0.0 | 1.6 | 0.00 | 0.00 | 0.00 | 59 | 1011.9 |
| 20260502194507 | 17 | 212 | 0.0 | 1.6 | 0.00 | 0.00 | 0.00 | 58 | 1012.1 |
| 20260502194012 | 17 | 212 | 0.0 | 3.2 | 0.00 | 0.00 | 0.00 | 56 | 1012.0 |
| 20260502193507 | 17 | 212 | 0.0 | 8.0 | 0.00 | 0.00 | 0.00 | 55 | 1012.1 |
| 20260502193007 | 18 | 212 | 1.6 | 8.0 | 0.00 | 0.00 | 0.00 | 53 | 1012.2 |